TimeEST,TemperatureF,Dew PointF,Humidity,Sea Level PressureIn,VisibilityMPH,Wind Direction,Wind SpeedMPH,Gust SpeedMPH,PrecipitationIn,Events,Conditions,WindDirDegrees,DateUTC
12:51 AM,9.0,-8.0,46,30.11,10.0,WNW,6.9,-,N/A,,Partly Cloudy,290,2013-01-23 05:51:00
1:51 AM,9.0,-8.0,46,30.13,10.0,West,8.1,-,N/A,,Partly Cloudy,280,2013-01-23 06:51:00
2:51 AM,9.0,-7.1,48,30.14,10.0,West,6.9,-,N/A,,Partly Cloudy,270,2013-01-23 07:51:00
3:51 AM,8.1,-6.0,53,30.15,10.0,West,6.9,-,N/A,,Partly Cloudy,260,2013-01-23 08:51:00
4:51 AM,8.1,-5.1,55,30.16,10.0,West,6.9,-,N/A,,Partly Cloudy,280,2013-01-23 09:51:00
5:51 AM,8.1,-4.0,58,30.17,10.0,West,8.1,-,N/A,,Partly Cloudy,270,2013-01-23 10:51:00
6:51 AM,6.1,-5.1,60,30.17,10.0,WSW,4.6,-,N/A,,Partly Cloudy,250,2013-01-23 11:51:00
7:51 AM,7.0,-2.0,67,30.18,10.0,WSW,6.9,-,N/A,,Partly Cloudy,250,2013-01-23 12:51:00
8:51 AM,10.9,-2.9,54,30.19,10.0,WSW,9.2,-,N/A,,Scattered Clouds,250,2013-01-23 13:51:00
9:51 AM,12.0,-5.1,46,30.19,10.0,WNW,13.8,19.6,N/A,,Scattered Clouds,290,2013-01-23 14:51:00
10:51 AM,14.0,-6.0,41,30.18,10.0,WNW,13.8,21.9,N/A,,Scattered Clouds,300,2013-01-23 15:51:00
11:51 AM,15.1,-9.0,34,30.15,10.0,NW,17.3,25.3,N/A,,Scattered Clouds,320,2013-01-23 16:51:00
12:51 PM,15.8,-9.4,32,30.11,10.0,WNW,15.0,29.9,N/A,,Mostly Cloudy,300,2013-01-23 17:51:00
1:51 PM,15.1,-9.0,34,30.12,10.0,West,15.0,20.7,N/A,,Mostly Cloudy,270,2013-01-23 18:51:00
2:51 PM,18.0,-7.1,33,30.13,10.0,West,18.4,27.6,N/A,,Mostly Cloudy,280,2013-01-23 19:51:00
3:51 PM,15.1,-9.0,34,30.13,10.0,NNW,15.0,23.0,N/A,,Mostly Cloudy,340,2013-01-23 20:51:00
4:51 PM,12.9,-9.0,37,30.14,10.0,NNW,10.4,-,N/A,,Scattered Clouds,340,2013-01-23 21:51:00
5:51 PM,12.0,-8.0,41,30.16,10.0,NW,13.8,-,N/A,,Scattered Clouds,320,2013-01-23 22:51:00
6:51 PM,10.9,-9.0,40,30.18,10.0,WNW,12.7,-,N/A,,Scattered Clouds,290,2013-01-23 23:51:00
7:51 PM,10.0,-11.0,38,30.18,10.0,NW,11.5,-,N/A,,Partly Cloudy,310,2013-01-24 00:51:00
8:51 PM,8.6,-11.2,40,30.17,10.0,NW,8.1,-,N/A,,Partly Cloudy,320,2013-01-24 01:51:00
9:51 PM,8.1,-9.9,44,30.18,10.0,NW,6.9,-,N/A,,Clear,310,2013-01-24 02:51:00
10:51 PM,7.0,-9.9,46,30.17,10.0,West,9.2,-,N/A,,Clear,280,2013-01-24 03:51:00
11:51 PM,6.1,-9.9,48,30.17,10.0,West,9.2,-,N/A,,Clear,280,2013-01-24 04:51:00